Home > Weather > St. Albert > Past weeks

Flag for Canada Past Weather in St. Albert, Alberta, Canada — Yesterday and Last 2 Weeks

Now
59 °F

Cool.


Feels Like: 59 °F
Forecast: 57 / 68 °F
Wind: 1 mph from South

Location: Edmonton Municipal

Current Time: Jul 30, 2016 at 7:16:33 AM

Latest Report: Jul 30, 2016 at 6:00 AM


Visibility: N/A

Pressure: 29.75 "Hg (27.53 "Hg at 653m altitude)

Humidity: 98%

Dew Point: 58 °F

Location of St. AlbertLocation

Past Weather in St. Albert — Graph

°F

St. Albert Temperature Yesterday

Maximum temperature yesterday: 83 °F (at 4:00 PM)
Minimum temperature yesterday: 56 °F (at 6:00 AM)
Average temperature yesterday: 71 °F

High & Low Weather Summary for the Past Weeks

 TemperatureHumidityPressure
High83 °F (Jul 24, 3:00 PM)98% (Jul 15, 4:00 PM)30.17 "Hg (Jul 15, 4:00 PM)
Low54 °F (Jul 15, 6:00 AM)26% (Jul 29, 7:00 PM)29.72 "Hg (Jul 19, 8:00 PM)
Average68 °F63%29.95 "Hg
* Reported Jul 15 6:00 AM — Jul 30 6:00 AM, St. Albert, Weather by CustomWeather, © 2016

Note: Actual official high and low records may vary slightly from our data, if they occured in-between our weather recording intervals... More about our weather records

Advertising

St. Albert Weather History for the Previous 24 Hours

Scroll right to see more
 ConditionsComfort  
Time TempWeatherWind HumidityBarometerVisibility
6:00 AM
Sat, Jul 30
59 °FCool.1 mph98%29.75 "HgN/A
5:00 AM59 °FCool.3 mph98%29.75 "HgN/A
4:00 AM59 °FCool.6 mph97%29.75 "HgN/A
3:00 AM58 °FCool.6 mph97%29.78 "HgN/A
2:00 AM58 °FCool.10 mph97%29.80 "HgN/A
1:00 AM59 °FCool.20 mph96%29.84 "HgN/A
12:00 AM66 °FMild.6 mph75%29.75 "HgN/A
11:00 PM
Fri, Jul 29
73 °FMild.7 mph58%29.78 "HgN/A
10:00 PM72 °FMild.6 mph57%29.78 "HgN/A
9:00 PM74 °FMild.7 mph45%29.78 "HgN/A
8:00 PM77 °FMild.7 mph33%29.79 "HgN/A
7:00 PM82 °FPleasantly warm.3 mph26%29.81 "HgN/A
6:00 PM83 °FPleasantly warm.7 mph27%29.83 "HgN/A
5:00 PM80 °FPleasantly warm.3 mph35%29.85 "HgN/A
4:00 PM83 °FPleasantly warm.8 mph32%29.87 "HgN/A
3:00 PM82 °FPleasantly warm.9 mph31%29.89 "HgN/A
2:00 PM82 °FPleasantly warm.8 mph35%29.91 "HgN/A
1:00 PM81 °FPleasantly warm.7 mph39%29.92 "HgN/A
12:00 PM79 °FWarm.6 mph45%29.94 "HgN/A
11:00 AM75 °FMild.5 mph55%29.96 "HgN/A
10:00 AM71 °FMild.3 mph66%29.97 "HgN/A
9:00 AM66 °FMild.5 mph72%29.99 "HgN/A
8:00 AM62 °FCool.3 mph80%30.01 "HgN/A
Weather by CustomWeather, © 2016

See weather overviewHow to use our weather pages